Weather History for KSGF - February, 2014

Change the Weather History Date:

Monday, February 24, 2014

  Actual Average Record
Temperature  
Mean Temperature 35 °F 40 °F  
Max Temperature 48 °F 51 °F 79 °F (1956)
Min Temperature 22 °F 29 °F 4 °F (1910)
Degree Days  
Heating Degree Days 30 25  
Month to date heating degree days 788 682  
Since 1 July heating degree days 3817 3495  
Cooling Degree Days 0 0  
Month to date cooling degree days 0 0  
Year to date cooling degree days 0 0  
Moisture  
Dew Point 13 °F    
Average Humidity 44    
Maximum Humidity 62    
Minimum Humidity 25    
Precipitation  
Precipitation 0.00 in 0.10 in 2.20 in (2001)
Month to date precipitation 0.50 2.12  
Year to date precipitation 1.79 4.59  
Snow  
Snow 0.00 in - - ()
Month to date snowfall 4.3  
Since 1 July snowfall 27.3  
Snow Depth 0.00 in    
Sea Level Pressure  
Sea Level Pressure 30.22 in    
Wind  
Wind Speed 8 mph (ESE)    
Max Wind Speed 14 mph    
Max Gust Speed 22 mph    
Visibility 10 miles    
Events      
T = Trace of Precipitation, MM = Missing Value Source: NWS Daily Summary

Daily Weather History Graph

Daily Weather History Graph

Search for Another Location

Airport or City:

Trip Planner

Search our weather history database for the weather conditions in past years. The results will help you decide how hot, cold, wet, or windy it might be!

Date:

Astronomy

Feb. 24, 2014 Rise Set
Actual Time 6:51 AM CST 6:02 PM CST
Civil Twilight 6:25 AM CST 6:28 PM CST
Nautical Twilight 5:54 AM CST 6:59 PM CST
Astronomical Twilight 5:24 AM CST 7:29 PM CST
Moon 2:46 AM CST (2/24) 1:08 PM CST (2/24)
Length of Visible Light 12h 03m
Length of Day
11h 11m
Waning Crescent, 28% of the Moon is Illuminated
Feb 24
Waning Crescent
Mar 1
New
Mar 8
First Quarter
Mar 16
Full
Mar 23
Last Quarter

Hourly Weather History & Observations

Time (CST) Temp. Windchill Dew Point Humidity Pressure Visibility Wind Dir Wind Speed Gust Speed Precip Events Conditions
12:52 AM 28.0 °F 20.0 °F 14.0 °F 56% 30.29 in 10.0 mi NE 8.1 mph - N/A   Clear
1:52 AM 27.0 °F 18.7 °F 12.9 °F 56% 30.28 in 10.0 mi ENE 8.1 mph - N/A   Clear
2:52 AM 26.1 °F 18.4 °F 12.9 °F 58% 30.28 in 10.0 mi NE 6.9 mph - N/A   Clear
3:52 AM 25.0 °F 19.3 °F 12.9 °F 60% 30.27 in 10.0 mi East 4.6 mph - N/A   Clear
4:52 AM 24.1 °F 17.0 °F 12.9 °F 62% 30.30 in 10.0 mi East 5.8 mph - N/A   Clear
5:52 AM 24.1 °F 15.2 °F 14.0 °F 65% 30.29 in 10.0 mi East 8.1 mph - N/A   Clear
6:52 AM 24.1 °F 17.0 °F 14.0 °F 65% 30.31 in 10.0 mi East 5.8 mph - N/A   Clear
7:52 AM 27.0 °F 19.5 °F 14.0 °F 58% 30.31 in 10.0 mi East 6.9 mph - N/A   Clear
8:52 AM 30.0 °F 21.7 °F 10.0 °F 43% 30.33 in 10.0 mi East 9.2 mph - N/A   Clear
9:52 AM 33.1 °F 25.5 °F 10.0 °F 38% 30.34 in 10.0 mi ESE 9.2 mph - N/A   Clear
10:52 AM 36.0 °F 29.6 °F 9.0 °F 33% 30.32 in 10.0 mi ESE 8.1 mph - N/A   Clear
11:52 AM 39.9 °F 33.4 °F 9.0 °F 28% 30.29 in 10.0 mi ESE 10.4 mph 21.9 mph N/A   Clear
12:52 PM 43.0 °F 36.8 °F 10.0 °F 26% 30.24 in 10.0 mi ESE 11.5 mph - N/A   Clear
1:52 PM 45.0 °F 39.3 °F 10.0 °F 24% 30.19 in 10.0 mi ESE 11.5 mph - N/A   Clear
2:52 PM 46.9 °F - 12.0 °F 24% 30.17 in 10.0 mi ESE 9.2 mph - N/A   Clear
3:52 PM 46.9 °F - 12.9 °F 25% 30.14 in 10.0 mi ESE 8.1 mph - N/A   Clear
4:52 PM 46.9 °F - 14.0 °F 27% 30.13 in 10.0 mi SSE 8.1 mph - N/A   Overcast
5:52 PM 46.0 °F 41.4 °F 15.1 °F 29% 30.11 in 10.0 mi SE 9.2 mph - N/A   Overcast
6:52 PM 45.0 °F 40.1 °F 16.0 °F 31% 30.12 in 10.0 mi SE 9.2 mph - N/A   Overcast
7:52 PM 44.1 °F 38.6 °F 16.0 °F 32% 30.12 in 10.0 mi SSE 10.4 mph - N/A   Overcast
8:52 PM 43.0 °F 37.2 °F 15.1 °F 32% 30.13 in 10.0 mi SSE 10.4 mph - N/A   Overcast
9:52 PM 42.1 °F 36.6 °F 15.1 °F 34% 30.14 in 10.0 mi SSE 9.2 mph - N/A   Overcast
10:52 PM 42.1 °F 39.2 °F 16.0 °F 35% 30.16 in 10.0 mi ESE 4.6 mph - N/A   Overcast
11:52 PM 41.0 °F 37.1 °F 15.1 °F 35% 30.16 in 10.0 mi SE 5.8 mph - N/A   Overcast